Location: Artiguedieu
(43.5000°N, 0.5454°E)
Time: 20:46:37
(UTC+00:00)

Transit 2A - Pass Details

Date: 02 August 2021
Orbit: 594 x 964 km, 66.7° (Epoch: 28 September)

Event Time Altitude Azimuth Distance (km) Brightness Sun altitude
Rises 04:37:55 0° 165° (SSE) 2,820 8.8 -2.6°
Reaches altitude 10° 04:40:52 10° 142° (SE) 1,941 8.3 -2.1°
Maximum altitude 04:43:27 16° 106° (ESE) 1,637 8.5 -1.7°
Drops below altitude 10° 04:46:06 10° 69° (ENE) 2,014 10.4 -1.2°
Sets 04:49:15 0° 48° (NE) 2,988 10.9 -0.7°
